[[{"header":{"parameterUnit":"m.s-1","parameterCategory":1,"la1":30.2991,"la2":30.254,"lo1":-89.0895,"lo2":-89.0444,"dy":0.0017,"dx":0.0017,"nx":28,"ny":28,"refTime":"2025-05-31T21:00:00:Z","depth":0,"parameterNumber":2,"parameterNumberName":"U-component_of_WINDS"},"data":[0,0,0,0,0,0,0,0,0,0,0,0,0,0,0,0,0,0,0,0,0,0,0,0,0,0,0,0,0,0,0,0,0,0,0,0,0,0,0,0,0,0,0,0,0,0,0,0,0,0,0,0,0,0,0,0,0,0,-0.2561,-0.256,0,-0.2484,-0.2483,-0.2482,-0.2423,-0.2422,-0.2422,-0.2421,-0.2343,-0.2342,-0.234,0,0,0,0,0,0,0,0,0,0,0,0,0,-0.2658,-0.2656,-0.2561,-0.256,-0.2559,-0.2484,-0.2483,-0.2482,-0.2423,-0.2422,-0.2421,-0.2421,-0.2344,-0.2342,-0.234,0,0,0,0,0,0,0,0,0,0,0,0,0,-0.2602,-0.2656,-0.2561,-0.252,-0.2516,-0.2484,-0.2483,-0.2481,-0.2423,-0.2422,-0.2421,-0.242,-0.2344,-0.2342,-0.234,-0.2342,0,0,-0.2332,-0.2331,0,0,0,0,0,0,0,0,-0.2605,-0.2598,-0.2527,-0.2523,-0.2518,-0.2462,-0.2488,-0.2435,-0.2423,-0.2458,-0.2421,-0.242,-0.2383,-0.2378,-0.2365,-0.2338,-0.2335,-0.2332,-0.2331,-0.233,-0.2329,0,0,0,0,0,0,0,-0.2609,-0.2601,-0.253,-0.2526,-0.2521,-0.2506,-0.2497,-0.2478,-0.2426,-0.2455,-0.2451,-0.2442,-0.2381,-0.2368,-0.2363,-0.2334,-0.2332,-0.233,-0.2329,-0.2328,-0.2306,-0.2307,0,0,0,0,0,0,-0.2619,-0.2605,-0.2533,-0.2528,-0.256,-0.2505,-0.2495,-0.2481,-0.2427,-0.2417,-0.2443,-0.244,-0.2372,-0.2366,-0.236,-0.236,-0.233,-0.2328,-0.2326,-0.2306,-0.2307,-0.2307,0,0,0,0,0,0,-0.2621,-0.2613,-0.2536,-0.2565,-0.2554,-0.2505,-0.2489,-0.248,-0.2466,-0.2417,-0.2408,-0.2439,-0.2371,-0.2363,-0.2347,-0.2356,-0.2327,-0.2325,-0.2305,-0.2306,-0.2307,-0.2359,0,0,0,0,0,0,-0.2624,-0.2614,-0.2614,-0.2566,-0.2553,-0.2524,-0.2489,-0.2479,-0.2463,-0.2458,-0.2411,-0.2403,-0.237,-0.2351,-0.2345,-0.2352,-0.2323,-0.2304,-0.2305,-0.2307,-0.2356,-0.2362,-0.2367,0,0,0,0,0,-0.2628,-0.2632,-0.2615,-0.2606,-0.2552,-0.2524,-0.2517,-0.2479,-0.2464,-0.2463,-0.2432,-0.2404,-0.2356,-0.235,-0.2342,-0.2349,-0.2303,-0.2305,-0.2307,-0.2354,-0.2361,-0.2367,0,0,0,0,0,0,-0.2683,-0.2625,-0.2605,-0.2593,-0.2564,-0.2514,-0.2513,-0.2487,-0.2462,-0.2459,-0.2413,-0.2403,-0.2392,-0.2369,-0.2363,-0.2349,-0.2326,-0.2327,-0.2365,-0.2371,-0.2376,-0.2381,-0.2321,0,0,0,0,0,-0.2694,-0.2676,-0.2626,-0.2621,-0.2607,-0.2563,-0.255,-0.2523,-0.2491,-0.2479,-0.2446,-0.2417,-0.2395,-0.2382,-0.2359,-0.2353,-0.2342,-0.2354,-0.236,-0.2364,-0.2365,-0.2361,-0.2366,-0.2314,-0.2314,-0.2314,0,0,-0.2716,-0.2682,-0.2673,-0.2631,-0.2605,-0.2589,-0.2553,-0.2536,-0.2524,-0.2476,-0.2459,-0.2434,-0.2399,-0.2388,-0.2381,-0.2368,-0.2377,-0.2366,-0.237,-0.2369,-0.2363,-0.2368,-0.2373,-0.2315,-0.2315,-0.2314,0,0,-0.2747,-0.272,-0.2712,-0.2687,-0.2649,-0.262,-0.2618,-0.2573,-0.2554,-0.2536,-0.2501,-0.2485,-0.2449,-0.2425,-0.2408,-0.2432,-0.2406,-0.2426,-0.2453,-0.245,-0.2454,-0.2458,-0.2467,-0.247,-0.2427,-0.2428,-0.2428,0,-0.2779,-0.2752,-0.2711,-0.2697,-0.268,-0.2636,-0.2629,-0.2607,-0.2564,-0.2553,-0.2539,-0.2493,-0.2466,-0.245,-0.2456,-0.2443,-0.2441,-0.2431,-0.2457,-0.246,-0.2462,-0.247,-0.2474,-0.243,-0.243,-0.243,-0.2429,0,-0.2794,-0.2775,-0.2774,-0.2733,-0.2716,-0.2705,-0.2664,-0.2651,-0.2627,-0.2599,-0.2582,-0.2548,-0.2518,-0.2513,-0.2488,-0.2493,-0.2486,-0.2465,-0.2441,-0.2471,-0.2478,-0.248,-0.2434,-0.2433,-0.2432,-0.2432,0,0,-0.2856,-0.2794,-0.2794,-0.2775,-0.2731,-0.2716,-0.2704,-0.2675,-0.2665,-0.2637,-0.2626,-0.2597,-0.2578,-0.2559,-0.2532,-0.2529,-0.2551,-0.2508,-0.2507,-0.2518,-0.2555,-0.2571,-0.2575,-0.2534,-0.2534,-0.2534,-0.2558,0,-0.288,-0.2856,-0.2819,-0.2807,-0.279,-0.2749,-0.2739,-0.2711,-0.2685,-0.2668,-0.264,-0.262,-0.2596,-0.2584,-0.2579,-0.2549,-0.2558,-0.2547,-0.2524,-0.2523,-0.2533,-0.2579,-0.2595,-0.2619,-0.2561,-0.2561,-0.2561,0,-0.2905,-0.2879,-0.2865,-0.2823,-0.2814,-0.2806,-0.2776,-0.276,-0.2728,-0.271,-0.2689,-0.266,-0.2646,-0.2624,-0.2605,-0.2599,-0.2587,-0.2571,-0.2571,-0.2567,-0.2544,-0.2576,-0.2625,-0.2629,-0.2565,-0.2565,-0.2564,0,-0.2953,-0.2915,-0.2901,-0.2887,-0.2837,-0.2832,-0.2811,-0.2778,-0.2763,-0.2738,-0.2728,-0.2701,-0.2687,-0.2668,-0.2633,-0.262,-0.2618,-0.2593,-0.2602,-0.2603,-0.2603,-0.2603,-0.2652,-0.2596,-0.2596,-0.2596,-0.2596,0,-0.2983,-0.2976,-0.2922,-0.2914,-0.2905,-0.2864,-0.2857,-0.2832,-0.2804,-0.2791,-0.2754,-0.2743,-0.2697,-0.2681,-0.2653,-0.2642,-0.2636,-0.2621,-0.2614,-0.2624,-0.2626,-0.2615,-0.2613,-0.2597,-0.2597,-0.2597,-0.2596,0,-0.3034,-0.2998,-0.298,-0.2935,-0.2923,-0.2919,-0.288,-0.2871,-0.2844,-0.2828,-0.2822,-0.278,-0.2759,-0.2722,-0.269,-0.2672,-0.2666,-0.2654,-0.2677,-0.2672,-0.2684,-0.2684,-0.2727,-0.2731,-0.2673,-0.2674,-0.2675,0,-0.3056,-0.305,-0.3004,-0.2992,-0.2973,-0.2955,-0.2939,-0.2899,-0.2885,-0.2849,-0.2845,-0.2821,-0.2799,-0.2768,-0.2735,-0.2711,-0.2698,-0.2715,-0.2694,-0.2705,-0.2698,-0.2699,-0.2698,-0.2719,-0.272,-0.2721,-0.2721,0,-0.3099,-0.3081,-0.306,-0.3034,-0.3016,-0.2993,-0.2969,-0.2962,-0.2916,-0.2902,-0.288,-0.2864,-0.2832,-0.2809,-0.2781,-0.276,-0.2734,-0.2728,-0.2729,-0.274,-0.2753,-0.2746,-0.269,-0.2727,-0.2727,-0.2726,-0.2726,-0.2726,-0.3136,-0.3129,-0.3095,-0.3074,-0.3051,-0.3029,-0.3018,-0.299,-0.2971,-0.2942,-0.292,-0.29,-0.2869,-0.2828,-0.2809,-0.2793,-0.2781,-0.2782,-0.2782,-0.2783,-0.2788,-0.2756,-0.2788,-0.2788,-0.2787,-0.2787,-0.2787,0,-0.3177,-0.3154,-0.3134,-0.3101,-0.3084,-0.3061,-0.3032,-0.302,-0.3003,-0.2976,-0.2956,-0.2932,-0.291,-0.2875,-0.2851,-0.2845,-0.2832,-0.284,-0.284,-0.2836,-0.28,-0.2802,-0.285,-0.285,-0.285,-0.285,-0.285,-0.285,-0.3196,-0.3183,-0.3162,-0.3137,-0.3114,-0.3094,-0.308,-0.306,-0.3038,-0.3013,-0.2994,-0.2972,-0.2942,-0.2916,-0.2895,-0.2885,-0.2878,-0.289,-0.2877,-0.2844,-0.2838,-0.2832,-0.2834,-0.2888,-0.2888,-0.2913,-0.2913,-0.2914]},{"header":{"parameterUnit":"m.s-1","parameterCategory":1,"la1":30.2991,"la2":30.254,"lo1":-89.0895,"lo2":-89.0444,"dy":0.0017,"dx":0.0017,"nx":28,"ny":28,"refTime":"2025-05-31T21:00:00:Z","depth":0,"parameterNumber":3,"parameterNumberName":"V-component_of_WINDS"},"data":[0,0,0,0,0,0,0,0,0,0,0,0,0,0,0,0,0,0,0,0,0,0,0,0,0,0,0,0,0,0,0,0,0,0,0,0,0,0,0,0,0,0,0,0,0,0,0,0,0,0,0,0,0,0,0,0,0,0,1.9242,1.9242,0,1.9193,1.9192,1.9192,1.9209,1.921,1.9211,1.9212,1.9157,1.9154,1.9152,0,0,0,0,0,0,0,0,0,0,0,0,0,1.9346,1.9344,1.9242,1.9242,1.9241,1.9193,1.9192,1.9192,1.9208,1.921,1.9211,1.9212,1.9158,1.9155,1.9152,0,0,0,0,0,0,0,0,0,0,0,0,0,1.9299,1.9343,1.9242,1.9244,1.9243,1.9193,1.9192,1.9191,1.9208,1.921,1.9211,1.9213,1.9159,1.9155,1.9151,1.9095,0,0,1.914,1.9138,0,0,0,0,0,0,0,0,1.9302,1.9295,1.9244,1.9244,1.9243,1.9209,1.9209,1.9159,1.9208,1.9221,1.9212,1.9214,1.9172,1.9168,1.9155,1.9093,1.909,1.9139,1.9137,1.9136,1.9135,0,0,0,0,0,0,0,1.9305,1.9297,1.9223,1.9243,1.9243,1.9245,1.924,1.9199,1.9188,1.922,1.9221,1.9216,1.9172,1.9158,1.9153,1.9089,1.914,1.9136,1.9134,1.9132,1.8976,1.8974,0,0,0,0,0,0,1.9309,1.93,1.9224,1.9221,1.9277,1.9242,1.9237,1.9218,1.9189,1.9186,1.9214,1.9217,1.9164,1.9158,1.9152,1.9082,1.9136,1.9132,1.913,1.8978,1.8976,1.8973,0,0,0,0,0,0,1.9311,1.9302,1.9226,1.9261,1.9251,1.9238,1.9217,1.9216,1.9202,1.9184,1.9182,1.9202,1.9165,1.9157,1.9109,1.908,1.913,1.9127,1.898,1.8977,1.8974,1.8943,0,0,0,0,0,0,1.9314,1.9303,1.9283,1.926,1.925,1.9186,1.9216,1.9214,1.9196,1.9199,1.9172,1.9169,1.9165,1.9114,1.9105,1.9076,1.9124,1.8983,1.8979,1.8975,1.8946,1.8939,1.8933,0,0,0,0,0,1.9318,1.9276,1.9282,1.9272,1.9224,1.9184,1.9178,1.9175,1.9194,1.9172,1.916,1.917,1.9085,1.9109,1.9099,1.9068,1.8984,1.898,1.8976,1.8949,1.8941,1.8933,0,0,0,0,0,0,1.9294,1.9273,1.9279,1.9229,1.9208,1.9187,1.916,1.9167,1.914,1.9143,1.914,1.9134,1.9084,1.9072,1.9099,1.9011,1.9037,1.9031,1.9021,1.9012,1.9006,1.9008,1.9121,0,0,0,0,0,1.9283,1.9253,1.9236,1.9193,1.9182,1.9173,1.9155,1.9156,1.9133,1.9124,1.9109,1.9086,1.9054,1.9033,1.9003,1.8945,1.8938,1.8919,1.8912,1.8907,1.8901,1.8866,1.8857,1.8959,1.8959,1.8959,0,0,1.9259,1.9244,1.9225,1.9188,1.9172,1.9139,1.9165,1.9131,1.9106,1.9119,1.9072,1.906,1.9034,1.898,1.8956,1.8968,1.8871,1.8902,1.8898,1.8894,1.8861,1.8851,1.8843,1.8956,1.8957,1.8957,0,0,1.9199,1.9186,1.9148,1.9131,1.9107,1.9101,1.9092,1.9069,1.9062,1.9016,1.9024,1.8994,1.8939,1.8919,1.8902,1.8834,1.884,1.8824,1.8788,1.8755,1.8747,1.874,1.8712,1.8703,1.8818,1.8818,1.8818,0,1.9172,1.9125,1.9126,1.909,1.9072,1.9084,1.9043,1.9027,1.8994,1.898,1.8995,1.8926,1.8909,1.885,1.8833,1.882,1.8807,1.8826,1.8749,1.8741,1.8734,1.8708,1.8698,1.8816,1.8816,1.8816,1.8817,0,1.9092,1.9059,1.9031,1.8999,1.8978,1.894,1.8933,1.8911,1.8913,1.8905,1.8856,1.8837,1.8801,1.8788,1.8789,1.8728,1.8736,1.875,1.8776,1.8723,1.8698,1.8688,1.8813,1.8814,1.8814,1.8815,0,0,1.9014,1.8983,1.8973,1.8957,1.8931,1.8905,1.8866,1.8833,1.8813,1.879,1.8755,1.8709,1.8721,1.8702,1.8701,1.8672,1.8615,1.8689,1.8689,1.8674,1.8543,1.853,1.8519,1.8621,1.8619,1.8617,1.8544,0,1.895,1.8883,1.8883,1.8821,1.8788,1.8799,1.8765,1.8744,1.8735,1.8705,1.8695,1.8661,1.8681,1.8669,1.8641,1.8628,1.8588,1.8634,1.8586,1.8584,1.8589,1.8506,1.8493,1.8425,1.8535,1.8533,1.8532,0,1.8866,1.884,1.8775,1.8751,1.8738,1.8708,1.8676,1.8648,1.8624,1.8619,1.8597,1.86,1.8559,1.8588,1.8528,1.8559,1.854,1.853,1.8527,1.852,1.8553,1.8494,1.8403,1.8392,1.8517,1.8518,1.8519,0,1.8811,1.8761,1.8715,1.8702,1.8674,1.8652,1.8639,1.8617,1.8596,1.8568,1.8554,1.8522,1.8503,1.8477,1.847,1.8492,1.841,1.8439,1.8402,1.8402,1.8382,1.8383,1.8283,1.8374,1.8374,1.8375,1.8375,0,1.8738,1.8697,1.869,1.8661,1.8614,1.8614,1.8567,1.8556,1.8536,1.8503,1.8511,1.848,1.8474,1.8442,1.8436,1.8386,1.8378,1.8371,1.837,1.8369,1.8369,1.8354,1.8357,1.8372,1.8372,1.8373,1.8373,0,1.8669,1.8663,1.8612,1.8591,1.8584,1.8551,1.8531,1.8502,1.8495,1.8453,1.8443,1.843,1.8392,1.8383,1.8338,1.8334,1.8274,1.8278,1.8282,1.8281,1.8243,1.8246,1.8128,1.8112,1.8216,1.8215,1.8215,0,1.8621,1.8589,1.8564,1.8544,1.853,1.8497,1.8476,1.8474,1.8451,1.842,1.8395,1.8358,1.8327,1.8265,1.825,1.8214,1.8216,1.8178,1.8211,1.821,1.8212,1.8213,1.8208,1.817,1.8169,1.8168,1.8168,0,1.8535,1.8533,1.8504,1.8472,1.8447,1.8422,1.8398,1.838,1.8375,1.8348,1.831,1.8287,1.824,1.8202,1.8166,1.8151,1.8156,1.8158,1.8147,1.8144,1.8146,1.8141,1.8261,1.816,1.8161,1.8161,1.8162,1.8162,1.8473,1.8444,1.8422,1.8388,1.837,1.8347,1.8318,1.8307,1.8275,1.8238,1.8238,1.8195,1.817,1.8122,1.8105,1.807,1.8081,1.8066,1.8062,1.8057,1.8052,1.8154,1.8064,1.8064,1.8064,1.8064,1.8064,0,1.8385,1.8371,1.834,1.8306,1.8279,1.829,1.8263,1.8239,1.8201,1.8178,1.8148,1.8102,1.8065,1.8047,1.801,1.7985,1.7986,1.7975,1.7975,1.797,1.8046,1.8057,1.7974,1.7974,1.7974,1.7974,1.7974,1.7974,1.8336,1.8287,1.8283,1.8225,1.8211,1.817,1.8153,1.8131,1.8112,1.8061,1.8031,1.802,1.7998,1.7959,1.7924,1.792,1.7904,1.789,1.7887,1.7956,1.7966,1.7974,1.7985,1.7888,1.7887,1.7814,1.7813,1.7813]}]]